Location: Treviso
(45.6669°N, 12.2430°E)
Time: 21:19:22
(UTC+01:00)

ISS - Pass Details

Date: 22 November 2023
Orbit: 415 x 417 km, 51.6° (Epoch: 06 December)

Event Time Altitude Azimuth Distance (km) Brightness Sun altitude
Rises 17:26:03 0° 247° (WSW) 2,352 2.5 -9.1°
Reaches altitude 10° 17:28:09 10° 250° (WSW) 1,492 0.7 -9.4°
Maximum altitude 17:31:29 69° 334° (NNW) 450 -3.6 -10.0°
Enters shadow 17:34:09 15° 57° (ENE) 1,222 -2.0 -10.4°
